Notices

What’s New in latest Release from January 14th 2021:

·       In Historical Hourly Data Report, users can switch between Local Standard Time (LST) and Universal Time Coordinates (UTC) time.

·       In Historical Hourly Data Report, we have an addition of a new column to display hourly precipitation data for the stations where the data are available, from 2001 onwards.

·       Expanded the Search Options of the Canadian Historical Weather Radar, users now able to select 24 hours (1 image every hour) image viewing duration.

Please note that the IDF dataset is available through this link: Intensity-Duration-Frequency (IDF) Files .

Hourly Data Report for October 01, 2020

MUSKOKA
ONTARIO
Current Station Operator: NAVCAN

44°58'29.000" N
79°18'12.000" W
281.90 m
6115529
71532
YQA

Download Data

Hourly Data (October 2020)
Hourly Data Report for October 1, 2020
TIME
LST
Temp Definition
°C
Dew Point Definition
°C
Rel Hum Definition
%
Precip. Amount Definition
mm

Wind Dir Definition
10's deg

Wind Spd Definition
km/h
Visibility Definition
km
Stn Press Definition
kPa
Hmdx Definition


Wind Chill Definition


Weather Definition


00:00 7.6 7.5 99 0.0 17 4 16.1 96.90     LegendNANA
01:00 7.7 7.6 99 0.0 17 5 16.1 96.94     LegendNANA
02:00 8.6 8.5 99 0.0 18 9 16.1 96.98     LegendNANA
03:00 9.6 9.2 97 0.2 19 11 16.1 97.00     Rain
04:00 9.8 9.2 96 2.0 19 8 16.1 97.06     Rain
05:00 9.9 9.5 97 1.5 20 13 11.3 97.17     Rain
06:00 9.1 8.2 94 1.0 22 11 16.1 97.23     Rain
07:00 9.2 8.1 93 0.5 28 5 16.1 97.31     Rain
08:00 9.3 8.7 96 1.5 20 13 9.7 97.37     Rain,Fog
09:00 10.5 9.0 90 1.5 LegendMM 4 16.1 97.45     LegendNANA
10:00 10.3 9.4 94 2.5 22 8 16.1 97.52     Rain
11:00 10.5 8.5 88 2.2 29 15 14.5 97.58     Moderate Rain
12:00 12.2 9.4 83 0.2 27 9 16.1 97.61     LegendNANA
13:00 12.0 10.1 88 0.5 31 13 16.1 97.62     Rain
14:00 11.2 9.0 86 0.0 25 15 16.1 97.68     Rain
15:00 11.9 9.3 84 0.0 31 8 16.1 97.67     Rain
16:00 11.4 7.9 79 0.0 25 5 16.1 97.71     LegendNANA
17:00 11.1 9.1 87 0.2 19 9 16.1 97.77     LegendNANA
18:00 9.2 8.5 95 0.0 20 8 16.1 97.79     LegendNANA
19:00 7.2 6.9 98 0.0   0 16.1 97.85     LegendNANA
20:00 8.1 7.8 98 0.0 LegendMM 4 16.1 97.89     LegendNANA
21:00 7.5 7.4 99 0.0 LegendMM 4 16.1 97.90     LegendNANA
22:00 7.9 7.5 97 0.0 33 5 16.1 97.94     LegendNANA
23:00 8.0 7.6 97 0.2 LegendMM 4 14.5 97.96     Rain

Notes on Data Quality.

Legend

  • E = Estimated
  • M = Missing
  • NA = Not Available*
  • [empty] = Indicates an unobserved value
Date modified: